GFSGBSN_850_spd_126.txt.gz
Wind_Speed
30 28 26 25 22 21 20 20 19 17 15 15 14 11 10 11 10 10 10 10 10 12 12 11 11 9 3 3 3 3 7 7 4 2 4 9 10 9 3 7 14 4 5 16 24 26 25
36 32 29 28 25 25 22 23 21 18 17 16 15 12 11 11 11 11 11 11 11 12 13 12 10 7 3 5 6 6 11 8 3 4 4 6 7 10 8 4 3 10 18 22 22 27 24
39 34 34 32 29 28 24 24 24 20 18 17 17 14 13 12 12 12 12 12 12 13 12 12 10 7 5 6 7 7 10 5 6 8 11 5 7 6 7 7 8 15 10 15 16 14 10
47 41 37 34 34 31 27 27 25 21 19 18 18 15 13 13 13 13 11 11 11 13 10 8 4 3 4 3 4 5 3 5 12 9 7 6 6 6 5 7 6 5 4 6 2 6 10
49 48 45 41 39 35 32 28 26 23 20 19 17 16 14 14 13 14 13 13 13 10 7 5 3 1 3 3 1 5 8 8 12 8 6 9 9 3 4 4 4 4 6 8 21 2 9
52 50 49 48 45 40 37 30 27 23 22 20 17 15 16 14 14 14 12 12 10 10 7 3 5 3 3 2 3 5 7 10 10 7 4 14 4 3 4 6 5 10 12 12 16 11 9
56 53 55 52 50 44 41 36 32 29 27 27 21 18 19 15 12 12 10 6 4 5 8 4 3 3 3 4 2 3 11 5 9 10 4 6 5 2 4 4 6 6 10 18 23 17 13
62 57 56 56 53 47 44 38 36 34 34 31 25 22 19 13 10 6 6 4 5 3 3 6 5 6 3 2 3 3 11 6 5 3 4 6 1 3 6 8 11 14 17 21 26 19 17
60 61 61 61 56 50 44 38 37 37 34 28 25 23 18 12 9 6 1 4 2 3 2 4 8 5 4 3 3 2 3 2 2 4 4 2 5 7 12 11 13 14 13 16 19 25 23
65 67 64 66 57 51 42 39 38 34 29 28 27 22 15 11 7 8 7 1 2 6 3 3 5 5 5 4 3 1 1 3 2 4 4 2 9 11 12 12 8 19 9 14 21 18 16
70 71 71 68 58 48 42 37 34 30 29 28 25 21 17 16 10 12 6 2 3 4 2 7 5 8 5 3 3 2 9 2 3 5 4 3 8 13 11 6 11 13 15 20 19 20 19
76 75 72 66 54 48 43 34 33 33 31 29 25 21 19 16 14 11 5 4 7 2 5 6 7 5 1 1 4 4 7 11 5 4 4 1 11 2 4 13 11 16 11 23 23 10 9
71 73 65 56 54 46 39 37 35 33 31 28 25 22 19 17 13 11 8 7 2 3 8 7 5 5 2 2 3 3 4 6 3 6 5 9 3 3 7 21 10 10 14 6 5 1 12
76 73 63 56 47 40 37 34 34 31 29 26 24 21 21 19 14 9 11 2 3 5 4 3 5 5 4 5 3 3 3 3 2 3 3 5 5 4 7 11 8 14 4 5 7 9 18
68 62 51 47 44 36 37 33 27 30 28 26 21 20 18 14 12 13 5 2 5 2 4 6 4 4 5 4 5 5 3 5 3 3 3 4 4 12 11 5 3 3 4 14 10 11 9
47 48 50 42 37 34 26 26 29 29 26 23 23 18 13 9 13 13 3 4 2 4 5 2 3 3 4 3 4 4 1 3 2 1 6 4 14 5 4 15 4 4 9 7 6 7 6
37 35 35 35 31 26 23 26 27 29 26 25 23 11 13 8 15 6 3 4 3 8 5 3 2 3 4 3 5 3 4 4 1 1 2 1 4 10 5 1 13 7 5 4 7 6 7
34 32 28 27 25 21 24 27 26 27 28 28 14 3 13 15 5 3 3 4 11 5 6 4 3 3 3 4 3 2 4 3 4 3 2 4 3 4 19 22 10 1 11 10 4 9 5
28 27 24 23 23 27 23 23 25 29 31 25 12 8 10 15 4 2 3 4 4 6 4 3 3 1 3 3 2 5 2 4 13 4 3 2 3 6 11 5 4 9 17 17 14 13 11
26 25 24 24 24 25 22 20 24 30 31 17 8 3 4 6 2 3 3 3 4 5 4 5 4 5 4 1 2 3 0 2 10 5 3 2 3 7 6 12 12 14 22 22 9 12 4
24 22 21 24 25 22 19 23 27 29 24 12 4 3 7 3 2 4 1 1 7 4 4 5 2 3 3 3 1 2 3 3 8 4 3 2 2 5 14 16 16 19 15 19 11 20 8
23 24 22 24 20 17 17 22 24 26 22 8 6 4 5 6 12 5 2 3 3 5 6 4 5 5 6 3 3 2 1 2 5 3 1 1 4 6 14 14 10 14 11 15 10 17 21
24 25 23 23 21 18 17 22 24 25 18 8 8 8 6 3 4 5 4 3 4 5 7 10 8 5 4 2 2 6 10 13 12 6 2 2 3 2 7 8 16 2 13 15 8 17 14
19 24 21 21 19 18 18 20 22 23 14 17 12 11 5 1 3 4 6 3 5 1 6 8 12 6 3 5 14 18 19 18 14 13 12 5 4 4 6 7 2 2 7 10 15 16 20
22 21 19 20 17 17 18 19 20 24 16 14 13 7 5 3 2 5 6 4 13 10 4 3 1 2 1 4 3 4 4 5 3 3 5 9 4 2 2 2 4 8 14 12 12 5 20
25 24 22 21 19 17 17 16 19 25 19 15 13 12 7 7 3 3 2 11 4 3 3 1 7 7 5 3 2 1 0 2 2 5 3 2 2 2 2 2 2 5 21 29 16 1 23
24 23 24 23 22 19 18 18 17 20 21 14 12 12 7 7 7 5 4 2 3 5 3 2 3 3 5 2 1 2 3 2 1 2 3 4 3 2 2 3 3 10 23 25 4 6 26
24 23 23 26 26 22 19 19 15 16 21 17 11 10 8 4 5 5 6 5 8 7 4 1 3 3 3 2 2 2 0 2 2 1 1 2 2 2 3 3 2 17 7 6 6 13 17
23 26 26 26 26 26 23 20 17 16 16 17 14 8 8 3 3 1 1 2 5 8 6 4 3 1 2 3 1 1 1 3 1 2 3 1 4 3 4 3 1 3 2 6 9 11 14

GFSGBSN_850_spd_132.txt.gz
Wind_Speed
35 34 32 31 30 27 25 23 22 19 19 20 19 18 18 17 17 16 15 13 13 14 15 15 14 12 10 3 4 5 4 7 8 6 5 5 4 2 2 3 6 3 3 10 15 22 20
36 35 36 35 34 32 31 27 26 23 21 22 22 19 19 18 17 18 14 15 14 13 14 15 13 12 8 3 5 4 4 4 4 4 3 2 2 3 2 1 0 3 6 13 7 15 11
43 41 39 39 39 37 34 32 30 26 25 24 23 20 20 19 18 18 17 14 15 14 14 14 11 9 8 5 4 5 6 4 1 4 4 2 2 2 3 3 5 5 4 5 8 16 6
47 50 48 44 41 41 40 37 33 30 27 23 21 24 21 21 19 19 17 15 15 15 14 13 11 9 4 3 3 2 1 1 3 2 2 2 0 3 4 6 7 5 5 6 7 12 8
45 45 49 53 45 46 44 43 39 33 31 29 24 25 24 21 20 18 18 15 15 16 15 12 10 4 3 5 4 1 1 4 3 4 3 4 5 5 6 3 5 7 4 5 6 14 7
45 47 42 54 51 51 49 50 43 38 32 30 27 27 25 22 20 20 15 13 15 17 12 10 10 6 3 3 4 4 3 3 4 6 4 5 5 4 5 5 1 5 5 5 8 5 5
40 42 46 43 57 53 51 47 49 45 39 34 31 29 26 22 21 19 14 13 11 6 10 7 3 3 3 4 4 5 2 3 5 7 3 6 6 4 4 3 3 4 4 11 10 9 7
42 42 41 45 43 63 56 48 51 52 45 38 35 31 27 25 23 20 22 11 12 5 5 11 14 9 8 4 4 7 1 3 4 4 3 5 4 1 4 2 5 6 8 9 11 1 12
48 48 46 41 46 49 64 61 59 56 54 45 41 34 30 28 20 22 22 14 11 8 3 6 13 10 7 12 6 9 5 5 4 3 2 5 5 3 2 5 4 4 5 5 12 21 10
44 47 52 51 45 46 55 65 63 59 54 51 44 36 31 29 20 23 16 13 7 4 2 5 6 7 12 8 2 7 6 3 2 3 6 4 2 3 4 3 3 4 3 8 12 9 6
46 50 55 59 58 48 49 63 67 58 54 53 50 42 36 31 14 26 19 12 10 9 3 2 5 6 14 9 12 3 7 4 5 3 4 2 0 4 3 3 1 7 7 11 16 12 2
53 57 62 62 63 62 56 57 66 62 64 53 53 44 39 29 19 20 18 17 13 4 7 4 6 6 6 3 3 6 5 7 5 4 5 2 1 4 4 5 2 8 6 9 1 2 2
56 66 69 66 65 66 64 55 67 73 65 51 55 46 32 37 29 23 23 21 3 5 1 6 5 7 6 5 2 4 4 3 3 3 2 5 2 3 1 3 3 7 6 4 5 4 4
61 73 64 61 61 63 64 59 69 66 64 60 53 37 37 28 30 30 29 4 5 8 6 4 5 9 5 5 2 2 5 4 2 5 3 3 2 2 4 2 2 3 1 3 3 4 11
70 69 56 49 55 66 67 62 72 72 62 61 42 40 38 29 34 31 17 4 12 5 7 8 5 5 4 2 6 4 2 6 5 5 5 4 3 2 3 2 4 2 1 5 3 9 5
63 49 40 45 50 55 69 73 75 70 69 57 51 34 37 36 29 30 4 11 6 3 4 4 6 5 5 5 4 4 6 3 4 3 4 5 1 2 4 4 2 3 2 4 2 4 6
38 25 29 35 42 58 79 81 75 66 60 51 47 17 26 34 32 23 7 6 4 4 10 4 4 4 5 5 3 3 6 1 3 4 3 4 3 3 2 1 4 2 2 2 2 2 3
34 10 31 32 64 82 81 76 69 65 59 53 24 6 36 33 9 5 4 5 7 6 6 4 4 5 3 4 4 2 5 4 4 7 3 1 4 1 6 6 5 4 4 3 1 3 5
23 43 43 53 68 74 72 68 65 63 65 49 21 15 29 32 6 9 4 5 4 4 3 4 3 3 3 4 5 4 5 3 5 3 6 5 1 2 5 4 3 1 2 0 6 7 3
8 7 25 38 48 54 58 60 61 59 50 36 17 5 11 13 3 12 6 5 5 8 5 6 4 5 5 3 4 5 4 2 3 5 9 5 3 6 6 6 3 4 6 5 2 4 5
17 24 29 29 29 34 38 49 59 55 38 30 8 5 13 9 4 4 5 6 11 5 4 7 3 3 7 4 3 4 3 3 3 8 4 4 3 4 5 8 5 8 6 5 0 8 3
16 20 23 28 30 33 40 48 50 31 28 16 8 10 7 22 16 6 2 5 9 6 4 4 7 7 5 5 5 6 6 2 3 3 3 2 2 3 3 9 6 3 2 4 5 3 6
16 21 25 26 31 37 38 44 43 26 21 11 9 18 17 4 4 4 4 5 8 8 8 8 16 6 7 6 11 12 5 6 7 6 3 3 2 2 3 2 3 1 4 5 3 2 4
17 22 23 24 28 28 30 42 28 25 16 14 20 18 14 3 3 4 4 6 11 4 8 11 17 7 7 13 10 6 3 3 4 4 7 4 3 1 3 4 1 3 5 2 4 3 5
19 22 21 20 19 23 29 29 28 22 13 20 18 22 8 4 5 6 10 11 19 21 10 12 6 14 18 8 3 3 2 2 1 4 6 6 3 1 1 1 1 3 2 2 1 1 8
20 20 19 22 21 24 29 28 20 16 16 17 19 19 22 8 1 6 8 17 12 5 4 6 17 17 6 3 2 3 3 4 3 3 3 5 2 1 1 1 4 4 4 1 5 3 11
22 22 20 20 20 25 30 26 21 19 16 13 18 20 20 12 5 6 5 6 9 8 5 5 7 3 3 2 2 2 2 1 4 6 4 3 3 4 2 3 5 1 8 2 2 3 13
25 26 23 21 20 23 27 24 20 16 13 11 15 15 16 11 8 8 9 10 11 11 5 9 5 1 3 3 2 2 2 1 2 1 3 4 4 3 2 1 5 2 2 2 1 7 9
23 24 26 23 23 21 23 25 20 18 15 11 18 17 16 14 14 18 17 13 12 10 18 7 4 3 4 4 1 3 2 2 3 2 3 2 4 4 5 4 2 3 6 2 1 5 7

GFSGBSN_850_spd_135.txt.gz
Wind_Speed
35 33 33 32 31 29 27 25 23 21 20 19 18 18 18 16 16 14 12 13 12 11 12 12 11 10 8 4 3 3 3 4 5 5 2 2 3 3 4 3 1 1 1 5 9 8 5
35 40 38 35 34 32 32 29 27 26 22 22 22 19 19 18 16 16 14 12 12 12 11 12 10 9 6 2 3 2 3 4 3 3 2 2 2 3 5 3 2 1 4 8 2 11 4
38 40 39 39 33 32 34 34 32 30 27 24 22 25 21 20 17 17 15 13 12 12 12 11 10 8 7 5 6 4 3 3 1 2 1 5 4 2 2 3 2 1 4 4 4 7 3
42 39 36 42 43 42 41 36 37 34 31 28 26 24 22 22 18 18 16 13 12 12 12 12 10 9 4 4 6 2 1 2 1 1 2 5 4 5 3 2 5 3 3 4 3 12 3
34 37 42 37 38 42 41 44 40 37 36 35 30 27 24 23 20 17 15 13 11 11 10 11 10 4 4 6 6 4 3 2 4 4 3 7 5 4 4 3 2 6 3 5 10 13 6
36 36 36 39 45 35 43 40 42 42 39 40 35 32 28 22 21 16 16 12 10 10 10 9 11 5 7 6 7 6 3 3 4 9 7 3 4 3 3 2 1 3 4 5 11 7 16
33 38 39 38 37 41 42 45 49 43 41 42 42 34 29 23 21 18 15 10 6 6 10 9 5 3 10 9 9 7 4 4 4 4 3 4 3 4 6 5 4 1 3 10 15 11 11
34 34 38 41 40 38 39 44 46 48 48 41 43 38 33 26 21 21 18 11 10 4 6 11 15 11 10 11 8 8 4 4 2 3 3 3 4 4 7 7 5 3 7 6 7 5 13
34 35 36 38 42 43 40 40 44 52 49 48 45 43 39 31 22 25 22 18 16 12 5 8 17 16 14 13 7 13 8 7 4 3 2 3 6 4 4 3 7 6 3 4 9 11 12
36 35 34 36 37 42 46 41 40 42 52 50 48 45 46 27 22 26 26 20 11 7 2 5 7 8 15 11 3 12 9 5 2 4 6 5 2 2 5 2 2 5 3 10 14 12 5
38 37 38 39 40 41 43 47 42 42 45 48 54 52 51 43 12 29 24 17 14 13 2 4 4 8 17 12 17 4 10 5 5 4 4 3 4 3 3 1 2 5 12 15 13 11 6
40 43 43 43 46 46 48 47 49 44 43 57 50 58 52 40 31 18 17 21 23 3 10 5 7 6 7 4 3 7 5 8 9 5 5 3 1 2 2 2 1 7 7 6 1 2 3
42 45 45 48 50 51 54 55 49 49 45 49 57 65 51 45 36 24 28 25 2 6 2 7 6 8 6 4 4 3 4 4 4 5 3 1 1 2 2 3 3 7 5 3 1 2 4
44 46 49 51 50 53 59 62 54 50 46 48 64 56 54 48 37 36 38 1 7 9 7 4 6 13 6 7 2 4 6 5 2 4 3 6 4 4 1 1 2 2 3 1 3 4 9
45 48 52 55 60 64 67 68 64 52 48 54 56 44 49 42 34 41 27 9 8 8 8 10 9 14 4 3 6 4 2 7 4 4 4 4 2 1 1 1 4 2 1 2 2 5 4
46 49 51 55 66 71 69 67 61 50 57 62 51 36 33 40 42 44 10 11 6 2 8 14 5 6 7 8 5 4 7 3 4 2 3 4 3 1 1 2 1 2 0 1 0 3 5
48 48 48 62 72 67 61 59 52 58 70 72 46 19 32 40 41 27 10 8 5 4 11 5 5 5 6 8 5 4 6 3 3 5 4 4 2 3 1 3 5 2 2 1 2 2 3
44 46 47 57 52 41 39 46 55 73 77 63 36 7 45 45 8 9 10 7 3 7 1 4 5 7 6 6 4 4 6 4 13 12 7 2 3 3 4 1 4 2 4 3 1 1 5
33 35 38 37 33 34 35 45 69 88 84 52 25 9 34 46 10 13 10 11 4 5 5 3 4 3 4 6 6 7 6 2 15 5 8 7 2 2 2 2 0 3 3 3 3 3 9
15 18 26 9 31 34 44 69 89 87 70 51 16 6 14 20 6 18 18 11 6 5 4 6 6 7 7 4 4 7 7 2 6 5 9 8 4 5 5 2 3 3 5 4 3 3 5
9 9 9 28 35 44 73 82 77 68 58 43 9 8 16 13 9 18 14 13 10 5 3 6 3 7 8 5 4 6 5 5 4 9 4 3 5 4 6 9 5 9 10 5 5 8 6
3 6 7 14 33 52 57 53 48 50 40 24 13 14 15 23 19 18 7 10 16 5 4 2 9 11 7 7 5 8 9 5 5 3 3 0 4 4 3 8 9 8 7 6 6 6 9
4 9 12 17 30 31 32 33 32 33 27 11 20 28 21 22 11 13 6 9 11 10 9 10 21 8 9 6 11 19 9 10 13 8 5 5 5 4 2 2 3 5 7 5 4 5 3
13 15 19 21 26 40 37 27 24 20 26 31 30 25 12 11 12 14 12 18 12 5 9 12 23 8 10 25 23 17 15 11 9 4 7 7 6 3 2 2 3 2 4 3 3 3 2
17 18 21 23 25 35 20 24 21 24 22 27 26 22 20 14 10 13 19 16 21 25 15 10 6 18 29 9 4 5 2 3 2 4 6 3 4 3 2 2 1 2 4 1 2 3 3
17 19 20 22 27 30 21 18 23 17 18 21 21 19 28 11 5 11 16 27 14 11 5 7 25 27 12 3 3 4 5 5 6 5 3 5 4 1 3 2 4 1 4 1 5 3 2
17 22 21 24 25 22 14 26 20 15 15 26 23 22 29 13 6 11 7 9 13 9 7 5 8 7 6 2 2 2 3 1 8 9 6 5 3 6 5 3 2 3 1 9 2 1 7
17 22 26 25 28 24 19 20 19 18 13 20 25 27 25 14 15 14 14 13 14 12 6 11 8 2 3 3 2 3 2 3 3 4 6 6 7 4 3 3 4 4 5 3 2 1 4
21 20 20 23 30 24 19 18 19 18 18 24 27 32 34 23 21 27 24 17 15 13 25 6 7 6 5 4 2 3 2 1 4 4 0 3 3 4 5 2 3 5 3 6 2 2 2

GFSGBSN_850_spd_138.txt.gz
Wind_Speed
23 29 29 28 27 27 28 25 24 22 20 20 19 18 16 17 16 13 12 10 9 9 9 8 9 7 6 3 4 6 4 3 3 2 0 2 2 2 5 2 4 7 2 3 4 2 4
32 35 31 27 31 29 29 29 28 26 25 22 21 21 21 15 19 15 13 11 10 10 8 8 8 6 4 7 6 5 4 3 1 0 1 1 3 3 3 1 5 1 5 8 6 3 5
36 37 37 36 38 34 30 30 31 29 28 27 25 23 23 22 18 17 15 13 10 10 9 9 6 7 7 7 8 5 4 5 4 2 2 3 4 2 4 4 1 3 8 6 7 4 6
31 31 32 36 35 33 37 32 28 30 30 29 29 27 25 24 21 16 15 15 11 10 9 8 6 6 6 8 8 4 3 4 4 3 4 6 4 5 1 3 2 5 5 6 7 4 2
32 32 32 32 35 39 29 31 31 35 34 31 32 31 28 26 23 19 15 14 13 11 10 7 7 4 5 6 8 7 7 5 4 3 6 8 4 2 4 5 5 4 7 6 7 4 6
27 29 34 35 33 34 40 37 33 36 33 32 31 32 30 28 26 20 17 13 12 12 10 9 11 6 8 7 10 8 8 6 5 8 7 5 4 5 4 6 8 1 5 5 10 8 12
27 26 26 28 34 36 34 35 39 38 36 35 32 31 33 33 30 22 18 9 7 6 13 10 5 3 7 9 12 10 8 6 6 7 8 4 7 7 4 4 4 2 5 10 12 9 13
26 27 28 28 27 28 33 34 34 36 41 41 36 36 33 29 35 24 20 12 12 4 8 14 12 10 10 11 9 12 10 9 8 7 7 6 8 5 5 4 1 3 8 8 8 6 12
29 28 28 29 29 29 28 31 36 34 33 37 36 36 32 36 37 33 26 22 18 13 6 9 18 19 16 16 12 17 15 9 8 9 9 7 8 8 4 2 4 4 5 6 10 18 15
31 30 31 31 30 29 28 27 29 36 34 33 30 35 39 37 35 33 31 21 19 10 5 9 10 11 18 14 10 14 14 10 6 7 7 3 7 6 5 1 4 6 2 9 14 11 7
33 31 32 33 33 32 31 30 27 28 32 31 31 35 43 37 28 26 23 26 11 9 5 14 10 10 19 20 18 11 12 8 12 10 6 6 10 9 6 1 1 3 10 13 13 10 9
38 36 35 35 35 36 36 35 34 32 31 30 26 28 45 40 32 22 27 19 16 3 9 8 11 14 20 16 12 17 12 8 12 7 4 7 3 4 3 2 1 6 9 6 4 4 5
39 41 40 39 38 38 39 38 37 36 31 29 26 28 44 41 33 28 24 29 7 5 3 10 11 17 18 18 13 19 19 14 9 8 10 8 8 5 1 2 4 5 7 3 4 4 3
41 41 42 41 41 41 39 39 39 36 35 27 24 26 41 45 37 34 38 3 6 11 9 3 14 21 16 20 13 16 18 13 6 5 11 11 7 10 4 1 2 2 4 2 4 4 9
38 43 45 44 43 44 42 44 44 37 31 27 18 30 46 45 31 40 30 3 12 9 12 15 17 20 11 19 10 15 17 13 8 10 6 7 6 7 3 2 3 5 2 3 3 6 5
40 42 43 46 46 47 47 45 44 45 41 35 32 39 35 50 39 46 9 14 8 7 12 19 9 15 19 22 16 15 16 11 9 7 6 5 6 8 6 7 4 2 4 4 4 4 5
46 47 49 47 50 52 53 51 51 51 44 34 33 20 27 38 49 29 7 9 7 15 20 16 10 11 14 23 15 18 18 10 10 11 7 8 3 8 4 7 9 7 5 3 2 4 4
44 47 45 50 53 59 59 55 57 61 52 41 39 11 36 57 10 7 6 8 9 17 20 7 9 6 18 23 14 10 12 9 18 19 12 4 2 6 6 5 3 4 7 5 4 5 6
43 40 45 51 57 57 56 62 68 63 58 63 37 10 53 56 10 11 10 9 12 9 11 12 7 8 15 16 9 12 12 5 19 16 13 9 6 6 6 5 5 10 11 6 3 4 11
38 40 39 41 46 59 66 69 62 58 60 67 26 6 16 28 16 22 18 18 14 13 4 3 6 14 14 16 9 16 12 7 15 12 9 6 4 2 5 4 7 9 12 12 7 5 10
35 25 27 26 35 60 58 50 46 55 88 69 21 8 23 15 14 22 25 22 23 12 8 7 3 13 13 8 15 11 13 16 10 13 8 3 4 4 5 4 6 8 10 11 11 13 6
16 20 19 13 38 13 26 42 47 83 94 50 19 13 31 20 27 21 18 20 27 16 13 11 10 14 14 15 8 19 21 15 11 9 10 4 4 6 5 8 10 12 11 11 14 13 15
13 13 11 5 21 37 44 52 73 75 69 39 29 23 36 24 20 19 19 22 23 23 8 17 17 12 11 9 13 22 15 17 16 16 10 8 6 7 3 6 5 8 17 14 4 7 7
11 5 8 8 5 24 36 32 36 42 38 35 32 40 14 15 19 22 27 26 27 23 10 19 29 10 13 32 33 26 22 18 16 10 11 9 9 5 5 6 7 3 3 10 8 7 6
9 3 2 2 6 23 20 30 28 22 30 46 35 28 12 13 15 18 24 19 21 22 15 16 2 26 34 23 12 10 5 6 5 6 7 6 7 4 4 10 2 4 8 6 4 1 5
10 8 5 22 19 25 25 32 33 32 37 40 27 23 30 14 8 28 20 26 17 11 7 7 29 28 12 4 4 7 6 10 8 7 6 6 4 5 5 4 5 5 8 2 5 4 6
12 11 11 14 14 19 23 28 28 25 26 24 27 31 31 14 14 32 17 21 26 21 9 19 15 6 6 4 6 7 5 7 10 13 9 7 6 9 7 6 2 5 5 7 5 5 3
16 17 14 15 16 23 25 23 22 28 28 31 34 30 27 20 15 12 15 16 23 20 12 21 10 3 5 6 5 4 4 4 6 10 13 8 9 6 7 8 8 10 8 4 5 5 3
24 20 18 20 18 24 28 23 19 18 24 35 28 32 35 27 19 27 24 21 15 26 35 10 8 10 5 5 3 3 3 4 9 7 2 6 2 4 6 1 10 8 1 5 3 3 1

GFSGBSN_850_spd_141.txt.gz
Wind_Speed
32 27 20 26 26 25 24 23 23 22 21 21 18 16 17 17 15 12 10 11 11 12 11 10 9 9 7 7 8 9 7 5 2 4 5 6 9 9 12 5 4 10 6 4 5 6 7
34 34 32 31 25 25 28 25 24 24 24 23 23 20 19 20 18 16 13 11 10 11 11 10 9 9 8 16 5 4 4 4 3 4 5 4 5 5 7 9 9 3 7 10 9 7 7
31 31 32 35 36 35 37 29 29 28 25 27 26 24 22 22 21 18 15 13 12 10 12 10 9 9 10 17 5 6 6 6 6 5 7 5 4 6 0 5 6 8 11 12 13 6 7
30 30 30 29 31 36 36 35 35 34 29 25 27 27 25 24 23 20 16 17 14 12 12 10 9 7 11 8 9 10 8 6 5 5 5 4 3 6 7 2 8 9 10 13 11 7 4
25 26 27 30 30 30 33 34 34 34 33 30 28 26 25 25 24 24 17 18 16 14 12 10 7 5 14 9 11 11 9 8 6 5 5 5 4 6 5 10 11 12 12 7 2 7 2
24 25 26 26 29 32 31 31 34 35 32 31 31 29 25 21 26 27 21 17 16 15 13 9 10 7 18 11 10 12 9 9 8 7 7 9 8 9 10 10 11 10 6 3 8 4 8
24 24 25 25 25 23 27 31 30 31 34 34 30 27 24 21 20 25 24 12 8 7 18 19 9 12 3 8 11 12 11 9 10 13 13 12 9 12 9 3 7 6 8 12 11 8 9
24 24 24 26 26 25 24 24 27 29 29 29 31 28 25 23 24 24 23 11 5 12 13 24 26 22 10 13 11 14 14 13 11 13 12 6 13 3 5 3 5 6 10 13 8 2 12
28 27 25 26 26 26 25 24 24 23 27 28 26 27 27 25 26 27 27 23 20 8 5 15 27 28 22 20 22 19 18 18 12 14 12 16 9 10 7 7 8 10 7 7 10 14 18
31 31 30 28 28 27 26 25 23 22 21 24 25 23 22 30 27 29 26 19 23 10 4 7 19 19 31 18 16 24 22 16 11 14 14 13 11 8 8 10 5 11 5 6 11 10 9
34 34 33 30 29 27 27 26 24 22 19 18 19 21 26 21 27 22 17 15 19 9 4 10 14 5 24 23 10 19 23 19 15 11 9 6 11 12 13 7 4 3 3 9 12 13 13
32 32 32 34 32 32 28 28 26 25 20 20 18 18 21 29 30 23 17 13 16 3 8 6 7 12 21 27 15 23 20 17 16 12 14 9 7 10 7 6 6 3 10 14 10 8 9
39 39 37 36 36 36 33 31 28 25 22 21 20 17 22 27 33 24 18 22 2 6 4 9 9 17 23 18 17 19 21 19 12 13 13 9 13 7 7 10 7 9 10 6 9 7 7
35 39 38 37 38 38 37 33 30 27 23 20 19 17 21 22 36 30 28 3 7 11 17 4 13 18 23 22 20 21 20 19 24 18 10 13 9 16 13 9 2 5 7 5 5 8 9
40 37 40 41 38 37 39 36 31 27 23 19 18 20 24 34 37 34 22 7 6 8 12 11 15 19 21 20 10 20 22 22 22 15 13 13 8 10 8 6 8 8 6 5 2 10 5
39 40 38 39 43 41 37 37 33 30 26 22 26 20 23 34 37 35 9 11 10 11 13 17 23 18 22 24 15 19 20 18 20 19 9 6 5 12 8 7 5 6 7 3 5 4 6
36 39 41 41 40 43 42 40 37 33 26 27 26 12 16 26 37 22 8 7 8 18 15 19 21 16 21 18 21 23 14 6 17 17 15 9 6 11 7 12 11 6 8 6 4 4 4
39 42 43 47 47 45 45 43 42 35 28 34 28 8 19 35 10 6 7 11 18 17 28 13 9 12 13 17 20 19 16 11 18 20 18 11 7 12 16 6 7 13 10 10 4 7 6
42 44 43 43 46 47 44 41 42 39 34 35 16 14 29 46 11 11 16 16 18 18 24 21 18 22 18 20 10 20 18 15 22 18 13 12 7 11 6 4 7 9 10 12 8 4 10
41 43 43 44 44 41 42 42 43 44 42 43 19 5 11 36 40 21 23 15 16 26 23 22 18 21 19 16 15 14 17 9 21 21 10 8 7 5 8 3 11 11 16 15 11 5 9
41 42 45 42 42 42 44 44 45 39 45 56 26 9 18 12 17 26 30 23 24 14 21 28 18 22 20 14 22 19 18 14 17 15 10 6 7 8 4 4 6 11 12 16 12 13 10
42 42 36 38 36 39 40 48 54 54 51 61 25 15 35 23 41 13 25 26 30 26 25 29 17 23 24 20 20 21 16 18 10 11 10 5 3 8 9 8 7 9 11 13 16 15 16
36 24 23 29 30 29 40 50 65 72 76 44 56 47 35 22 29 19 24 35 34 25 30 34 27 23 22 20 21 22 26 17 10 15 15 10 7 8 9 7 7 9 17 16 7 11 12
21 19 25 21 22 22 29 44 40 64 97 66 61 48 31 17 22 29 32 26 27 30 19 23 28 18 10 19 24 20 18 12 16 16 15 12 11 5 5 7 8 2 3 12 16 9 12
13 13 14 16 7 10 15 20 25 65 90 61 54 51 33 16 23 22 27 25 24 32 19 26 29 20 31 30 17 10 8 8 10 11 11 11 9 5 6 11 4 3 5 5 9 9 9
6 10 8 1 11 7 13 16 47 74 58 55 47 44 35 15 20 37 27 31 18 15 14 17 15 34 23 8 9 10 7 12 11 10 9 8 9 7 8 10 7 8 12 5 3 8 9
5 5 6 12 8 14 21 21 29 44 40 45 37 33 33 8 28 41 21 28 25 20 9 17 17 22 17 7 9 9 8 15 10 14 14 10 10 11 8 8 3 9 11 7 5 4 7
4 1 2 4 17 19 23 27 29 34 36 36 30 26 29 14 13 28 37 30 30 24 14 31 15 11 10 9 7 6 6 12 9 13 14 10 10 8 11 10 11 14 10 5 6 7 6
6 9 6 18 22 21 21 29 29 25 27 30 31 27 39 27 18 27 23 19 10 24 34 31 14 19 11 8 6 6 6 5 12 8 14 7 5 7 6 4 12 15 7 7 5 4 5

GFSGBSN_850_spd_144.txt.gz
Wind_Speed
34 32 29 24 19 23 24 22 21 21 20 18 18 18 17 16 14 13 14 14 15 13 11 10 11 11 9 7 12 7 8 11 7 6 8 8 9 13 13 13 10 7 13 4 7 5 7
28 29 31 32 32 31 22 25 26 23 21 21 21 21 20 18 17 15 15 16 15 15 12 11 11 10 9 15 5 6 7 5 5 8 9 7 7 8 10 14 9 12 9 11 12 11 5
28 29 28 27 30 31 32 32 30 24 24 25 22 23 22 22 20 18 16 17 16 16 15 12 11 12 12 21 6 8 6 7 7 8 11 9 7 7 6 9 9 10 13 14 19 15 5
25 26 28 29 27 28 31 33 32 33 32 29 27 23 22 23 23 21 19 20 17 16 16 14 10 11 11 11 11 13 10 9 7 7 8 9 6 10 11 10 8 12 14 13 10 14 8
24 24 24 25 27 28 29 29 31 32 31 32 30 29 25 22 21 20 21 22 20 18 16 13 9 7 14 11 14 15 12 12 8 6 7 7 7 11 7 8 10 13 12 14 9 14 7
22 23 22 23 24 24 24 28 28 29 32 30 30 29 29 25 20 18 19 19 20 21 15 13 11 9 22 12 9 11 12 10 10 7 8 9 9 8 8 10 11 9 17 11 3 9 9
21 20 20 21 22 21 21 21 21 25 25 28 29 28 24 22 18 16 16 14 11 5 11 15 8 9 5 11 7 12 13 10 11 9 12 15 9 12 15 15 11 4 9 11 8 2 2
21 21 20 20 20 20 21 21 21 20 20 24 24 26 29 25 21 18 19 8 10 4 8 17 28 29 23 12 12 15 14 13 14 14 16 13 12 16 8 2 3 7 11 13 13 6 3
25 23 23 23 22 22 20 20 19 19 19 17 21 22 21 21 20 23 22 18 11 9 4 12 23 27 26 25 24 18 22 21 15 14 17 17 7 2 8 6 7 11 14 13 8 12 13
26 28 28 27 26 24 23 22 19 17 16 15 13 16 19 17 19 25 26 18 12 12 2 7 10 20 33 25 26 30 27 23 16 17 16 15 18 8 7 10 9 12 7 3 6 8 9
30 30 30 28 30 29 24 22 19 18 16 14 11 11 18 13 15 16 16 10 8 5 5 3 10 9 18 35 4 24 32 26 21 18 13 14 10 8 13 14 11 5 2 6 10 12 15
32 30 30 30 29 27 28 25 22 18 16 15 12 14 14 13 22 22 16 10 15 2 9 7 6 11 15 30 24 9 31 24 20 18 19 16 7 10 14 7 4 5 7 12 14 13 11
32 35 36 35 33 31 28 27 25 22 17 15 14 16 17 18 25 18 15 21 2 8 3 9 9 12 17 20 23 15 23 21 15 15 20 15 15 9 4 7 6 8 9 4 8 8 8
36 35 33 33 32 34 34 29 28 25 20 16 15 14 18 19 23 17 28 3 12 14 19 2 11 15 18 22 23 21 21 20 24 19 11 14 11 18 13 16 12 14 15 7 5 8 6
33 33 35 35 36 33 33 31 27 25 22 17 15 17 22 21 22 26 20 8 6 19 17 11 13 14 19 22 12 21 21 19 20 21 13 14 14 17 14 15 8 8 6 5 3 11 5
32 35 35 37 37 36 32 33 30 25 24 19 20 19 25 26 27 34 10 12 5 19 23 14 13 16 20 23 22 20 16 14 22 23 19 6 5 15 8 4 12 8 4 3 4 4 10
34 35 36 36 36 35 35 33 30 29 23 22 23 12 18 26 28 25 9 11 13 23 27 16 19 16 21 19 23 16 13 10 19 19 20 8 5 12 12 11 13 9 8 5 5 7 4
36 36 35 37 35 37 36 37 33 29 28 24 25 7 17 33 13 5 10 17 28 16 28 20 14 21 19 17 17 20 19 13 7 19 17 7 3 7 18 13 18 14 13 14 3 6 7
36 38 38 38 40 40 40 37 38 35 32 31 19 22 24 35 10 9 15 25 24 20 18 19 16 20 18 17 11 17 17 15 2 4 8 8 4 4 11 8 9 8 15 16 13 4 9
37 39 40 41 41 41 40 40 39 39 35 37 13 7 13 28 26 21 23 23 26 31 25 28 23 21 21 19 12 9 13 6 7 15 8 11 3 8 10 6 9 11 17 16 13 7 7
39 37 39 40 43 42 44 43 42 41 41 45 29 7 12 7 17 24 26 20 27 25 28 24 22 25 19 18 19 23 17 9 5 3 0 4 4 9 9 8 7 11 15 19 12 14 6
34 39 39 39 41 44 46 45 43 42 42 50 28 12 21 18 35 24 23 27 28 27 24 30 26 28 24 22 22 19 21 14 11 10 14 3 3 11 9 11 10 10 12 13 15 17 18
38 40 44 45 47 48 47 45 44 49 51 44 41 37 24 22 20 18 24 30 32 26 29 32 29 22 21 25 25 19 26 20 11 10 5 4 3 5 6 11 12 15 10 12 4 10 10
40 45 50 50 41 34 38 46 52 50 58 49 37 44 26 15 20 23 31 32 30 30 25 25 28 22 26 24 15 13 17 16 11 16 15 9 12 4 4 5 15 10 5 14 18 11 11
40 31 23 24 26 30 32 38 45 53 61 55 52 34 41 22 19 28 31 29 32 33 25 25 32 37 15 25 12 9 5 6 15 17 16 13 7 5 6 10 7 4 7 9 9 12 12
11 10 13 16 19 21 30 39 46 58 66 69 63 63 33 18 26 33 22 29 19 21 18 30 13 34 33 12 7 9 8 9 10 11 16 14 7 4 6 10 8 4 12 5 7 5 12
9 11 13 15 14 17 27 35 39 61 80 84 75 75 49 32 31 37 20 27 39 25 10 15 17 13 24 9 8 4 5 14 9 15 17 9 6 11 11 8 4 10 8 9 5 5 15
6 8 6 10 10 17 20 4 6 8 38 93 72 70 65 41 20 41 36 34 37 33 10 19 16 6 6 6 6 5 5 10 7 12 14 9 9 9 9 9 12 19 9 2 9 13 13
1 1 8 12 9 6 6 12 15 34 44 54 48 62 56 27 12 20 14 33 39 38 25 36 6 18 10 6 5 4 6 6 9 8 14 8 7 6 8 4 14 15 18 13 9 13 10

GFSGBSN_850_spd_147.txt.gz
Wind_Speed
29 30 29 27 26 22 19 20 21 19 19 19 17 16 16 15 13 13 14 14 14 15 16 14 14 15 13 7 12 11 7 8 9 5 2 7 10 11 5 10 14 2 4 10 1 2 3
24 24 25 25 27 26 26 25 20 23 22 21 19 18 19 18 17 15 16 16 15 14 16 15 14 13 11 9 4 9 9 10 6 3 8 8 7 10 7 8 6 9 11 11 8 6 5
23 24 23 24 23 24 25 24 25 26 22 22 22 20 20 20 19 18 18 18 17 16 15 15 15 14 16 21 9 8 10 8 6 9 10 8 7 3 8 8 9 9 6 9 14 14 4
19 18 19 20 22 23 24 26 28 30 30 30 29 25 22 21 19 19 20 21 18 18 15 15 15 14 14 14 12 19 14 11 8 10 10 9 8 7 7 10 8 5 4 4 8 12 5
19 20 19 19 18 20 20 23 25 26 27 28 26 27 27 24 22 20 19 18 19 19 16 15 13 8 16 9 12 16 15 14 13 8 10 8 6 6 5 2 4 4 5 8 4 10 7
18 20 20 19 19 19 19 18 17 21 25 25 25 25 27 24 23 21 19 16 17 20 12 13 14 8 17 15 12 9 14 13 10 7 9 9 6 2 0 3 5 5 9 8 7 8 7
17 17 16 15 15 15 16 16 16 16 15 20 22 23 26 24 19 17 17 13 8 7 13 17 8 12 13 6 2 7 13 11 12 9 7 11 3 7 9 10 13 11 5 5 2 4 5
18 18 17 16 15 15 15 15 16 16 15 15 16 20 20 22 20 16 16 6 6 4 9 18 29 32 31 23 17 13 12 12 13 9 7 5 9 11 12 7 1 4 4 6 7 5 3
22 22 21 19 17 16 16 14 14 15 15 15 15 14 18 18 17 17 18 13 9 7 5 10 28 29 32 26 34 22 22 23 7 9 10 11 10 18 10 5 4 4 4 6 5 5 1
29 26 21 22 23 20 18 17 15 14 14 13 12 10 12 12 12 15 19 15 10 5 4 6 9 16 28 33 18 35 27 26 9 12 11 10 18 12 4 4 6 4 4 6 4 4 3
26 25 25 24 22 20 20 21 18 15 13 13 11 11 10 8 6 8 10 8 11 5 5 5 6 6 8 26 10 25 38 30 16 12 7 8 3 5 7 6 6 3 7 3 4 4 4
27 27 24 24 23 24 22 21 18 18 14 12 12 12 9 11 16 9 7 9 15 3 11 6 6 6 8 24 19 3 22 29 25 10 13 9 17 7 7 3 1 7 5 3 4 2 4
29 29 30 26 26 27 24 22 21 18 17 13 12 14 15 15 15 14 11 24 4 8 4 13 8 6 8 11 21 14 8 18 11 12 16 11 15 4 8 4 5 5 5 2 2 2 6
32 29 27 27 27 25 23 24 24 21 19 16 14 16 19 19 16 12 32 4 10 9 20 3 4 5 12 11 14 18 10 14 19 7 3 10 5 10 5 7 7 7 8 5 6 4 3
27 27 30 30 27 26 24 22 20 20 20 19 16 18 24 22 19 19 24 10 9 10 12 18 23 11 9 15 8 14 18 11 14 15 9 8 10 4 10 6 8 5 5 6 1 3 1
26 26 24 27 29 28 27 26 22 21 21 18 20 20 29 25 25 26 10 13 8 10 11 13 23 8 13 15 13 12 9 11 15 15 17 4 1 4 7 8 7 4 1 3 1 3 5
29 29 29 29 29 29 29 27 26 23 21 21 21 12 21 29 26 20 11 10 15 26 15 7 11 12 8 9 16 12 9 5 14 12 15 9 4 1 6 4 7 2 2 4 4 4 4
31 32 33 33 33 30 29 28 26 27 24 21 19 7 19 26 14 7 10 20 20 17 27 15 6 5 13 7 4 13 11 8 6 6 16 8 4 5 9 8 9 5 7 6 4 3 3
32 33 34 34 33 32 30 30 28 28 27 23 11 13 19 32 10 7 7 19 20 12 19 13 14 10 8 10 5 3 1 4 14 6 3 6 4 4 3 2 1 4 9 11 6 2 4
32 32 34 35 34 34 34 33 34 31 29 29 11 4 13 32 17 18 15 16 21 27 22 22 11 13 6 6 7 4 6 3 6 6 10 7 2 6 11 2 5 5 9 11 12 5 4
30 32 34 35 35 36 37 37 37 35 32 33 23 8 9 6 18 11 17 14 23 16 23 20 10 15 10 7 11 9 7 6 5 6 6 4 3 4 4 9 13 7 8 16 10 10 8
29 30 31 32 37 37 35 35 36 38 35 39 14 12 12 4 29 23 21 18 17 21 10 23 18 20 15 18 14 15 7 6 5 3 5 4 8 2 13 14 13 12 10 11 14 9 11
30 33 35 36 37 38 39 38 36 39 39 40 40 33 25 14 7 17 19 26 28 22 26 29 22 14 17 21 23 19 17 17 8 9 5 7 6 4 6 14 17 14 8 7 5 4 7
33 33 36 40 41 41 44 46 45 44 46 46 38 34 26 17 14 14 25 27 27 27 24 20 31 15 33 19 3 4 8 8 13 8 12 9 9 5 1 4 15 5 11 10 12 9 6
35 39 39 43 48 51 50 52 51 54 54 56 53 44 35 14 15 20 16 19 24 23 21 24 24 35 19 7 3 3 1 2 1 6 7 6 7 2 6 11 10 3 4 5 4 6 9
36 42 44 33 30 34 38 41 44 43 52 58 57 52 44 18 17 27 15 31 14 16 12 20 26 24 17 4 3 5 5 5 6 5 14 13 8 6 4 11 13 5 16 7 2 3 8
36 19 15 18 20 23 25 29 39 44 48 53 56 60 44 24 37 34 18 17 25 14 9 7 11 6 21 2 3 3 3 7 7 8 11 12 9 15 6 1 5 4 6 8 5 5 14
11 16 19 21 21 22 26 29 32 37 46 52 46 58 58 29 15 45 34 37 23 28 10 9 6 1 3 6 7 4 4 5 3 6 11 11 9 5 3 5 8 11 6 3 12 17 20
11 14 11 9 14 19 25 30 34 41 51 59 46 53 57 28 13 25 42 36 47 36 31 19 6 7 9 3 3 4 3 3 6 3 5 3 6 5 7 4 2 9 18 26 23 21 20

GFSGBSN_850_spd_150.txt.gz
Wind_Speed
28 29 30 28 24 22 20 19 18 18 18 17 17 16 15 14 13 12 12 13 14 13 16 16 16 17 15 8 10 8 2 7 9 6 2 6 10 5 3 5 8 5 3 2 9 10 7
24 23 23 24 26 27 27 25 23 20 21 21 20 17 16 16 15 15 15 15 14 14 15 16 17 16 16 6 6 4 7 7 9 5 4 7 7 11 9 5 1 5 4 5 2 3 4
23 22 22 23 22 22 23 24 25 25 25 25 23 21 19 18 17 16 16 18 17 15 15 16 17 18 21 22 14 10 9 8 7 6 9 9 6 5 5 8 9 5 5 4 5 4 3
18 17 17 18 19 22 23 23 24 25 26 25 27 24 23 21 20 17 16 20 21 19 17 16 17 17 17 14 14 20 14 14 7 7 11 12 7 8 6 9 8 5 3 2 4 4 8
18 18 17 17 17 16 16 17 20 23 24 25 26 27 29 26 24 20 17 18 19 20 18 15 13 11 17 8 9 7 21 19 13 12 10 9 9 4 5 1 4 3 4 4 8 9 5
15 16 17 17 16 16 16 16 16 15 17 21 24 24 24 24 21 20 18 18 17 18 15 14 13 8 15 10 10 5 13 9 13 7 8 5 3 1 3 3 6 5 4 4 5 4 3
16 15 13 13 13 13 15 15 14 14 13 14 14 19 21 21 20 16 14 13 10 9 12 14 6 10 13 7 7 8 9 14 13 8 6 5 2 7 11 7 6 5 4 5 4 4 4
15 14 15 14 12 12 11 11 11 13 13 13 13 13 16 17 16 14 11 7 10 4 10 16 24 29 31 27 11 10 10 14 9 8 4 1 10 13 7 7 9 11 11 7 1 2 4
18 18 16 15 14 13 12 11 10 10 11 12 12 12 12 14 13 13 15 10 7 6 7 14 23 27 32 29 26 29 23 22 6 7 9 10 12 9 11 11 10 5 4 4 5 2 4
25 24 23 22 19 19 17 14 13 11 10 10 9 10 9 8 8 10 13 13 8 7 4 6 7 14 25 33 17 34 35 25 8 10 8 8 20 17 11 12 10 7 4 4 4 3 4
25 23 21 21 23 20 16 16 17 15 11 9 9 10 7 5 3 8 5 12 9 7 2 6 7 8 9 18 3 12 43 34 16 9 7 9 2 7 13 10 7 6 4 4 2 3 3
30 27 23 20 20 21 22 21 19 15 14 11 9 10 9 10 10 6 10 15 17 4 11 5 4 8 6 14 7 1 24 27 18 7 10 7 17 5 7 2 5 8 5 5 5 3 3
26 26 25 23 22 20 19 19 18 18 15 14 11 12 14 12 9 14 12 19 3 5 3 6 4 5 6 7 9 2 12 16 13 11 18 10 18 6 6 5 4 5 7 1 3 0 6
26 28 27 26 25 23 22 18 20 20 18 14 14 14 17 17 11 13 19 3 7 8 15 3 2 13 10 8 6 13 6 9 16 5 3 10 6 15 6 9 7 6 8 6 6 5 3
29 27 25 25 29 25 23 22 19 16 17 17 15 18 22 21 18 17 19 7 9 6 5 8 15 15 5 6 11 15 20 18 12 18 10 6 7 4 6 6 13 5 5 6 3 3 2
33 30 27 24 23 23 22 21 21 18 15 17 19 21 29 22 21 21 10 13 6 10 5 4 4 5 8 7 5 8 10 11 11 17 7 6 3 1 2 6 4 7 6 3 1 5 5
29 30 28 24 23 21 22 24 23 20 18 17 18 11 12 28 23 19 9 9 16 28 13 5 4 5 5 4 11 10 6 10 9 12 18 7 4 2 3 2 7 3 3 3 4 4 4
29 27 27 27 27 26 25 24 22 23 21 18 19 5 10 22 16 6 11 10 24 17 22 8 3 7 7 6 4 4 9 8 12 10 14 9 5 9 6 5 5 7 7 6 4 3 3
28 27 27 28 30 30 30 28 26 24 23 25 11 16 15 30 10 13 8 11 19 16 15 9 15 8 4 4 5 8 6 8 4 4 9 7 2 1 2 1 3 3 4 4 3 3 5
27 27 27 29 30 30 30 30 29 27 26 27 10 4 20 28 23 17 16 16 18 27 15 23 4 19 9 5 7 5 7 6 11 3 1 14 5 8 15 1 3 5 5 9 6 5 7
25 26 27 28 29 31 32 31 31 31 30 28 17 6 10 5 16 17 16 13 20 12 20 22 6 14 11 8 7 6 6 4 6 3 7 3 7 5 2 8 4 3 8 10 11 14 9
23 24 27 29 30 31 31 33 34 32 31 35 15 6 11 16 2 19 22 20 19 19 11 21 21 21 13 13 9 5 6 5 4 0 5 6 1 2 3 4 4 10 16 17 11 13 10
23 25 27 29 30 30 31 34 37 36 36 35 32 28 5 17 19 12 21 29 31 26 26 32 19 15 10 20 13 19 16 11 10 8 8 8 7 4 10 9 8 7 23 18 8 5 7
26 26 29 30 31 33 34 35 34 38 41 45 32 25 19 10 10 14 16 19 23 24 18 17 28 12 38 14 13 5 3 6 12 7 8 6 6 3 0 7 7 8 11 21 19 7 8
27 29 32 34 35 35 36 38 40 41 41 44 45 32 26 10 16 16 18 12 19 26 18 20 27 29 26 9 1 1 2 3 3 3 5 5 5 4 4 6 7 7 5 7 11 5 1
31 31 39 40 42 42 42 44 45 44 44 46 46 46 29 11 20 31 15 21 11 10 9 23 23 30 22 3 4 5 5 4 5 3 4 7 10 5 4 4 8 5 6 4 4 3 6
34 38 36 37 38 40 43 50 54 55 53 51 43 50 41 26 34 28 18 18 32 10 4 4 13 12 17 6 6 4 4 6 7 9 6 6 4 9 4 4 6 5 2 9 8 4 16
36 33 24 19 20 20 21 24 30 38 47 54 61 52 51 29 30 32 39 35 15 25 13 7 3 5 2 6 4 4 4 6 4 6 8 10 8 4 4 5 10 4 2 5 8 18 26
24 17 16 20 20 22 26 29 31 30 33 50 36 64 54 41 15 39 28 52 34 29 28 17 7 5 10 3 3 2 1 2 6 4 2 2 6 6 7 5 1 3 9 19 26 30 21